Torna al catalogo

STARLINK-36070

AttivoComunicazioniVLEO
NORAD 66864·PAYLOAD·🇺🇸 United States

Lanciato Dec 2, 2025 da Cape Canaveral Space Force Station

Loading…

Prossimi Passaggi (prossime 24 ore)

TLE

AggiornatoSource: CelesTrak SupGP

Epoca: Sep 14, 2026, 23:14 UTC

1 66864C 25281S   26257.96854167 -.00021630  00000+0 -78319-3 0  2577
2 66864  43.0038 354.7797 0001778 271.8247 329.7101 15.27598837    15

Traccia STARLINK-36070 in tempo reale con AllMySat

Download on the App Store